NIMBUS 2 DEB, 37890

Orbit data source: Space-Track

NIMBUS 2 DEB, 37890 is space debris in SSO originally from a launch on Sun, 15 May 1966 UTC launched from the Air Force Western Test Range (AFWTR). Debris objects in space refer to the collection of defunct objects orbiting the Earth. Examples of debris include non-operational satellites, rocket bodies, and fragments generated from explosions, collisions, or faulty payload assembly.

Loading next visibility...
Identifier
37890, 1966-040AV
Orbit
SSO
Country
Flag of USUS
Related business
Manufacturer
Unknown
Mission
Spacecraft
Bus & Motor
Unknown
Mass
Unknown
Launch date (UTC)
1966-05-15 (60 years ago)
Launch vehicle
Unknown
Launch site
Air Force Western Test Range (AFWTR)
Object type
Payload
Rocket body
Debris
Shape & HBR
Unknown shape, 0.1 m
Radar Cross Section
Small (<0.1 m²)

Expand to show TLE details & history
Last TLE update: 1 day ago

TLE from 1 day ago
0 NIMBUS 2 DEB
1 37890U 66040AV  26129.88152413  .00001552  00000-0  25145-2 0  9997
2 37890 100.5003  92.8141 0044509 281.0578  78.5550 13.49671297716335
Epoch: 2026-05-09T21:09Z
TLE epoch observation values (Epoch: 2026-05-09T21:09:23.684Z)
Latitude
0.00001°
Longitude
-92.22718°
Altitude
1,069.784 km
Speed
7.32 km/s
True Right ascension
06h 11m 15s
True Declination
0° 00' 00"
Sunlit
Object was in daylight at epoch
Visualization orbit readout
Latitude
Unknown
Longitude
Unknown
Altitude
Unknown
Speed
Unknown
Apparent Right ascension
Unknown
Apparent Declination
Unknown
Sunlit
N/A
Visualization observer readout
Local Sidereal Time
06:58:18
Azimuth
Unknown
Elevation
Unknown
Doppler factor
Unknown
Orbital elements
Apogee altitude
1,103.967 km
Perigee altitude
1,037.658 km
Semi-major axis
7,448.95 km
Eccentricity
0.00445
Inclination
100.5003°
RAAN
92.8141°
Arg. of periapsis
281.0578°
True anomaly
79.05544°
Mean anomaly
78.555°
Eccentric anomaly
78.80517°
Mean motion
3.37599 °/min
Orbital period
106.64 mins
BSTAR
0.0025145
Loading maneuver chart data...
Computing Atmospheric mass density...
Loading historical data...
Loading historical data...
Loading historical data...
Loading historical data...
Loading historical data...
Loading historical data...
Loading historical data...

Documentation

Showing up to 5 results
|